| time (UTC) | temp F | wind direction | speed knots | gust knots | rain 1hr in | rain 24hr in | rain mn in | humidity % | barometer mb |
| 20260504034202 | 54 | 158 | 0.0 | 0.0 | 0.00 | 0.00 | 0.00 | 9 | 1009.8 |
| 20260504033202 | 55 | 158 | 0.0 | 0.0 | 0.00 | 0.00 | 0.00 | 9 | 1009.8 |
| 20260504032202 | 55 | 158 | 0.0 | 0.0 | 0.00 | 0.00 | 0.00 | 9 | 1009.8 |
| 20260504031202 | 55 | 158 | 0.0 | 0.0 | 0.00 | 0.00 | 0.00 | 9 | 1009.8 |
| 20260504030201 | 55 | 158 | 0.0 | 0.0 | 0.00 | 0.00 | 0.00 | 9 | 1009.8 |
| 20260504025202 | 55 | 158 | 0.0 | 0.0 | 0.00 | 0.00 | 0.00 | 9 | 1009.8 |
| 20260504024202 | 55 | 158 | 0.0 | 0.0 | 0.00 | 0.00 | 0.00 | 9 | 1009.8 |
| 20260504023201 | 55 | 158 | 0.0 | 0.0 | 0.00 | 0.00 | 0.00 | 9 | 1009.8 |
| 20260504022202 | 55 | 158 | 3.5 | 4.3 | 0.00 | 0.00 | 0.00 | 9 | 1010.8 |
| 20260504021202 | 55 | 180 | 0.0 | 0.0 | 0.00 | 0.00 | 0.00 | 9 | 1009.8 |
| 20260504020202 | 55 | 202 | 0.0 | 0.0 | 0.00 | 0.00 | 0.00 | 9 | 1009.8 |
| 20260504015202 | 55 | 202 | 0.0 | 0.0 | 0.00 | 0.00 | 0.00 | 9 | 1009.8 |
| 20260504014202 | 55 | 202 | 0.0 | 0.0 | 0.00 | 0.00 | 0.00 | 9 | 1009.8 |
| 20260504013202 | 55 | 202 | 0.0 | 0.0 | 0.00 | 0.00 | 0.00 | 9 | 1009.8 |
| 20260504012202 | 55 | 202 | 0.0 | 0.0 | 0.00 | 0.00 | 0.00 | 9 | 1009.8 |
| 20260504011202 | 55 | 202 | 0.0 | 0.0 | 0.00 | 0.00 | 0.00 | 9 | 1009.8 |
| 20260504010202 | 55 | 202 | 0.0 | 0.0 | 0.00 | 0.00 | 0.00 | 9 | 1009.8 |
| 20260504005202 | 55 | 202 | 0.0 | 0.0 | 0.00 | 0.00 | 0.00 | 9 | 1009.8 |
| 20260504004202 | 56 | 202 | 0.0 | 0.0 | 0.00 | 0.00 | 0.00 | 9 | 1009.8 |
| 20260504003202 | 56 | 202 | 0.0 | 0.0 | 0.00 | 0.00 | 0.00 | 9 | 1009.8 |
| 20260504002202 | 56 | 202 | 0.0 | 0.0 | 0.00 | 0.00 | 0.00 | 9 | 1009.8 |
| 20260504001202 | 56 | 202 | 0.0 | 0.0 | 0.00 | 0.00 | 0.00 | 9 | 1009.8 |
| 20260504000204 | 56 | 202 | 0.0 | 0.0 | 0.00 | 0.00 | 0.00 | 9 | 1009.8 |
| 20260503235202 | 56 | 202 | 0.0 | 0.0 | 0.00 | 0.00 | 0.00 | 9 | 1009.8 |
| 20260503234202 | 56 | 225 | 0.0 | 0.0 | 0.00 | 0.00 | 0.00 | 9 | 1009.8 |
| 20260503233202 | 57 | 225 | 0.0 | 0.0 | 0.00 | 0.00 | 0.00 | 9 | 1009.8 |
| 20260503232202 | 57 | 225 | 0.0 | 0.0 | 0.00 | 0.00 | 0.00 | 9 | 1009.8 |
| 20260503231202 | 57 | 225 | 0.0 | 0.0 | 0.00 | 0.00 | 0.00 | 9 | 1009.8 |
| 20260503230202 | 58 | 225 | 0.0 | 0.0 | 0.00 | 0.00 | 0.00 | 9 | 1009.8 |
| 20260503225202 | 58 | 225 | 0.0 | 0.0 | 0.00 | 0.00 | 0.00 | 9 | 1009.8 |
| 20260503224202 | 59 | 225 | 0.0 | 0.0 | 0.00 | 0.00 | 0.00 | 8 | 1009.8 |
| 20260503223202 | 59 | 225 | 0.0 | 0.0 | 0.00 | 0.00 | 0.00 | 8 | 1009.8 |
| 20260503222202 | 59 | 225 | 3.5 | 3.5 | 0.00 | 0.00 | 0.00 | 9 | 1009.8 |
| 20260503221202 | 59 | 248 | 1.7 | 1.7 | 0.00 | 0.00 | 0.00 | 9 | 1009.8 |
| 20260503220201 | 59 | 248 | 0.0 | 0.0 | 0.00 | 0.00 | 0.00 | 9 | 1009.8 |
| 20260503215202 | 59 | 248 | 0.0 | 0.0 | 0.00 | 0.00 | 0.00 | 8 | 1009.8 |
| 20260503214202 | 59 | 248 | 0.0 | 0.0 | 0.00 | 0.00 | 0.00 | 8 | 1009.8 |
| 20260503213202 | 60 | 248 | 0.0 | 0.0 | 0.00 | 0.00 | 0.00 | 8 | 1009.8 |
| 20260503212202 | 60 | 248 | 1.7 | 2.6 | 0.00 | 0.00 | 0.00 | 8 | 1009.8 |
| 20260503211202 | 60 | 248 | 1.7 | 1.7 | 0.00 | 0.00 | 0.00 | 8 | 1009.8 |
| 20260503210202 | 60 | 248 | 3.5 | 3.5 | 0.00 | 0.00 | 0.00 | 8 | 1009.8 |
| 20260503205202 | 60 | 248 | 0.0 | 0.0 | 0.00 | 0.00 | 0.00 | 9 | 1009.8 |
| 20260503204203 | 60 | 248 | 2.6 | 3.5 | 0.00 | 0.00 | 0.00 | 9 | 1009.8 |
| 20260503203202 | 60 | 158 | 0.0 | 0.0 | 0.00 | 0.00 | 0.00 | 9 | 1009.8 |
| 20260503202202 | 60 | 158 | 0.0 | 0.0 | 0.00 | 0.00 | 0.00 | 9 | 1009.8 |
| 20260503201203 | 60 | 158 | 0.0 | 0.0 | 0.00 | 0.00 | 0.00 | 9 | 1009.8 |
| 20260503200202 | 61 | 158 | 0.0 | 0.0 | 0.00 | 0.00 | 0.00 | 9 | 1009.8 |
| 20260503195202 | 61 | 158 | 0.9 | 0.9 | 0.00 | 0.00 | 0.00 | 9 | 1009.8 |
| 20260503194201 | 61 | 158 | 0.0 | 0.0 | 0.00 | 0.00 | 0.00 | 9 | 1009.8 |
| 20260503193202 | 61 | 158 | 0.0 | 0.0 | 0.00 | 0.00 | 0.00 | 8 | 1009.8 |
| 20260503192202 | 61 | 158 | 0.0 | 0.0 | 0.00 | 0.00 | 0.00 | 8 | 1009.8 |
| 20260503191202 | 61 | 202 | 1.7 | 1.7 | 0.00 | 0.00 | 0.00 | 8 | 1009.8 |
| 20260503190202 | 61 | 202 | 0.0 | 0.0 | 0.00 | 0.00 | 0.00 | 8 | 1009.8 |
| 20260503185203 | 61 | 202 | 0.0 | 0.0 | 0.00 | 0.00 | 0.00 | 8 | 1009.8 |
| 20260503184202 | 61 | 202 | 0.0 | 0.0 | 0.00 | 0.00 | 0.00 | 8 | 1009.8 |
| 20260503183202 | 61 | 202 | 0.0 | 0.0 | 0.00 | 0.00 | 0.00 | 8 | 1009.8 |
| 20260503182202 | 61 | 202 | 0.0 | 0.0 | 0.00 | 0.00 | 0.00 | 8 | 1008.8 |
| 20260503181201 | 61 | 202 | 3.5 | 4.3 | 0.00 | 0.00 | 0.00 | 8 | 1008.8 |
| 20260503180202 | 61 | 225 | 1.7 | 1.7 | 0.00 | 0.00 | 0.00 | 8 | 1008.8 |
| 20260503175202 | 62 | 202 | 4.3 | 4.3 | 0.00 | 0.00 | 0.00 | 8 | 1009.8 |
| 20260503174202 | 62 | 202 | 4.3 | 4.3 | 0.00 | 0.00 | 0.00 | 8 | 1008.8 |
| 20260503173202 | 62 | 270 | 3.5 | 3.5 | 0.00 | 0.00 | 0.00 | 8 | 1008.8 |
| 20260503172202 | 62 | 202 | 1.7 | 2.6 | 0.00 | 0.00 | 0.00 | 8 | 1008.8 |
| 20260503171202 | 62 | 225 | 7.0 | 7.0 | 0.00 | 0.00 | 0.00 | 8 | 1008.8 |
| 20260503170202 | 62 | 202 | 5.2 | 6.1 | 0.00 | 0.00 | 0.00 | 8 | 1008.8 |
| 20260503160202 | 60 | 180 | 6.1 | 7.0 | 0.00 | 0.00 | 0.00 | 9 | 1009.8 |
| 20260503150202 | 59 | 202 | 6.1 | 7.0 | 0.00 | 0.00 | 0.00 | 9 | 1009.8 |
| 20260503140202 | 61 | 180 | 6.1 | 6.1 | 0.00 | 0.00 | 0.00 | 8 | 1009.8 |
| 20260503131202 | 61 | 225 | 6.1 | 6.1 | 0.00 | 0.00 | 0.00 | 7 | 1009.8 |
| 20260503130202 | 62 | 202 | 1.7 | 2.6 | 0.00 | 0.00 | 0.00 | 7 | 1009.8 |
| 20260503120201 | 66 | 202 | 3.5 | 3.5 | 0.00 | 0.00 | 0.00 | 5 | 1009.8 |
| 20260503110202 | 69 | 248 | 7.8 | 7.8 | 0.00 | 0.00 | 0.00 | 5 | 1009.8 |
| 20260503100202 | 69 | 135 | 5.2 | 5.2 | 0.00 | 0.00 | 0.00 | 5 | 1008.8 |
| 20260503090202 | 68 | 180 | 0.0 | 0.0 | 0.00 | 0.00 | 0.00 | 5 | 1009.8 |
| 20260503081202 | 65 | 180 | 6.1 | 6.1 | 0.00 | 0.00 | 0.00 | 6 | 1009.8 |
| 20260503080202 | 64 | 158 | 6.1 | 6.1 | 0.00 | 0.00 | 0.00 | 6 | 1009.8 |
| 20260503072202 | 62 | 135 | 6.1 | 6.1 | 0.00 | 0.00 | 0.00 | 7 | 1009.8 |
| 20260503071202 | 62 | 135 | 6.1 | 7.0 | 0.00 | 0.00 | 0.00 | 7 | 1009.8 |
| 20260503070201 | 62 | 135 | 0.0 | 0.0 | 0.00 | 0.00 | 0.00 | 7 | 1009.8 |
| 20260503060202 | 59 | 135 | 4.3 | 4.3 | 0.00 | 0.00 | 0.00 | 8 | 1009.8 |
| 20260503054201 | 59 | 158 | 0.0 | 0.0 | 0.00 | 0.00 | 0.00 | 8 | 1009.8 |
| 20260503053202 | 58 | 135 | 0.0 | 0.0 | 0.00 | 0.00 | 0.00 | 8 | 1009.8 |
| 20260503052201 | 58 | 135 | 0.0 | 0.0 | 0.00 | 0.00 | 0.00 | 9 | 1009.8 |
| 20260503051202 | 57 | 135 | 0.0 | 0.0 | 0.00 | 0.00 | 0.00 | 9 | 1009.8 |
| 20260503050202 | 57 | 135 | 0.0 | 0.0 | 0.00 | 0.00 | 0.00 | 9 | 1009.8 |
| 20260503045202 | 57 | 68 | 0.0 | 0.0 | 0.00 | 0.00 | 0.00 | 9 | 1009.8 |
| 20260503044202 | 57 | 68 | 0.0 | 0.0 | 0.00 | 0.00 | 0.00 | 9 | 1009.8 |
| 20260503043201 | 57 | 68 | 0.0 | 0.0 | 0.00 | 0.00 | 0.00 | 9 | 1009.8 |
| 20260503042201 | 57 | 68 | 0.0 | 0.0 | 0.00 | 0.00 | 0.00 | 9 | 1009.8 |
| 20260503041202 | 57 | 45 | 0.0 | 0.0 | 0.00 | 0.00 | 0.00 | 9 | 1009.8 |
| 20260503040202 | 57 | 22 | 0.0 | 0.0 | 0.00 | 0.00 | 0.00 | 9 | 1009.8 |
| 20260503035202 | 57 | 0 | 0.0 | 0.0 | 0.00 | 0.00 | 0.00 | 9 | 1009.8 |